FENGYUN 1C DEB, 30328

Orbit data source: Space-Track

FENGYUN 1C DEB, 30328 is space debris in SSO originally from a launch on Mon, 10 May 1999 UTC launched from the Taiyaun Space Center, China (TSC). Fengyun 1C debris stems from the Chinese weather satellite Fengyun-1C, which was intentionally destroyed by a Chinese anti-satellite missile in 2007. This event dramatically increased the amount of space debris, with thousands of trackable fragments posing hazards to satellites and human spaceflight. The Fengyun 1C debris cloud has become a focal point in discussions about space sustainability and the need for international regulations to prevent the creation of new debris.

Loading next visibility...
Identifier
30328, 1999-025AAP
Orbit
SSO
Country
Flag of CNCN / PRC
Related business
Manufacturer
Unknown
Mission
Spacecraft
Bus & Motor
Unknown
Mass
Unknown
Launch date (UTC)
1999-05-10 (27 years ago)
Launch vehicle
Unknown
Launch site
Taiyaun Space Center, China (TSC)
Object type
Payload
Rocket body
Debris
Shape & HBR
Unknown shape, 0.1 m
Radar Cross Section
Small (<0.1 m²)

Expand to show TLE details & history
Last TLE update: 12 hours ago

TLE from 12 hours ago
0 FENGYUN 1C DEB
1 30328U 99025AAP 25351.03781381  .00000210  00000-0  13671-3 0  9992
2 30328  98.6862   1.0269 0005960 141.4981 281.3152 14.12475870973250
Epoch: 2025-12-17T00:54Z
TLE epoch observation values (Epoch: 2025-12-17T00:54:27.113Z)
Latitude
61.59107°
Longitude
-114.81684°
Altitude
860.571 km
Speed
7.428 km/s
True Right ascension
22h 58m 50s
True Declination
61° 26' 56"
Sunlit
Object was in daylight at epoch
Visualization orbit readout
Latitude
Unknown
Longitude
Unknown
Altitude
Unknown
Speed
Unknown
Apparent Right ascension
Unknown
Apparent Declination
Unknown
Sunlit
N/A
Visualization observer readout
Local Sidereal Time
11:24:54
Azimuth
Unknown
Elevation
Unknown
Doppler factor
Unknown
Orbital elements
Apogee altitude
852.386 km
Perigee altitude
843.772 km
Semi-major axis
7,226.216 km
Eccentricity
0.0006
Inclination
98.6862°
RAAN
1.0269°
Arg. of periapsis
141.4981°
True anomaly
281.24822°
Mean anomaly
281.3152°
Eccentric anomaly
281.28171°
Mean motion
3.53327 °/min
Orbital period
101.89 mins
BSTAR
0.00013671
Loading maneuver chart data...
Computing Atmospheric mass density...

Documentation

Showing up to 5 results
|